Weather History for KTTD - March, 2013

Change the Weather History Date:

Monday, March 25, 2013

  Actual Average Record
Temperature  
Mean Temperature 52 °F 49 °F  
Max Temperature 60 °F 58 °F 70 °F (1966)
Min Temperature 44 °F 40 °F 29 °F (1957)
Degree Days  
Heating Degree Days 13 16  
Month to date heating degree days 442 451  
Cooling Degree Days 0 0  
Month to date cooling degree days 0 0  
Growing Degree Days 2 (Base 50)    
Moisture  
Dew Point 31 °F    
Average Humidity 47    
Maximum Humidity 61    
Minimum Humidity 33    
Precipitation  
Precipitation T in 0.14 in 0.97 in (1962)
Month to date precipitation 1.57 3.77  
Year to date precipitation 6.32 15.04  
Snow  
Snow 0.00 in - - ()
Month to date snowfall 0.0  
Snow Depth 0.00 in    
Sea Level Pressure  
Sea Level Pressure 29.99 in    
Wind  
Wind Speed 14 mph (East)    
Max Wind Speed 22 mph    
Max Gust Speed 28 mph    
Visibility 10 miles    
Events      
T = Trace of Precipitation, MM = Missing Value Source: NWS Daily Summary

Daily Weather History Graph

Daily Weather History Graph

Search for Another Location

Airport or City:

Trip Planner

Search our weather history database for the weather conditions in past years. The results will help you decide how hot, cold, wet, or windy it might be!

Date:

Astronomy

Mar. 25, 2013 Rise Set
Actual Time 7:02 AM PDT 7:29 PM PDT
Civil Twilight 6:32 AM PDT 7:58 PM PDT
Nautical Twilight 5:57 AM PDT 8:34 PM PDT
Astronomical Twilight 5:21 AM PDT 9:10 PM PDT
Moon 6:04 PM PDT (3/25) 5:52 AM PDT (3/25)
Length of Visible Light 13h 26m
Length of Day
12h 26m
Waxing Gibbous, 97% of the Moon is Illuminated
Mar 25
Waxing Gibbous
Mar 27
Full
Apr 2
Last Quarter
Apr 10
New
Apr 18
First Quarter

Hourly Weather History & Observations

Time (PDT) Temp. Windchill Dew Point Humidity Pressure Visibility Wind Dir Wind Speed Gust Speed Precip Events Conditions
12:53 AM 46.0 °F 40.2 °F 28.9 °F 51% 30.09 in 10.0 mi East 12.7 mph - N/A   Clear
1:53 AM 46.0 °F 39.6 °F 28.0 °F 50% 30.08 in 10.0 mi East 15.0 mph - N/A   Clear
2:53 AM 46.0 °F 39.6 °F 28.0 °F 50% 30.06 in 10.0 mi East 15.0 mph 23.0 mph N/A   Clear
3:53 AM 45.0 °F 37.9 °F 27.0 °F 49% 30.05 in 10.0 mi East 16.1 mph - N/A   Clear
4:53 AM 45.0 °F 38.5 °F 27.0 °F 49% 30.05 in 10.0 mi East 13.8 mph - N/A   Overcast
5:53 AM 45.0 °F 37.6 °F 27.0 °F 49% 30.04 in 10.0 mi East 17.3 mph - N/A   Mostly Cloudy
6:53 AM 44.1 °F 36.8 °F 27.0 °F 51% 30.05 in 10.0 mi East 16.1 mph 25.3 mph N/A   Scattered Clouds
7:53 AM 45.0 °F 37.6 °F 27.0 °F 49% 30.04 in 10.0 mi East 17.3 mph - N/A   Mostly Cloudy
8:53 AM 46.9 °F - 27.0 °F 46% 30.03 in 10.0 mi East 18.4 mph - N/A   Clear
9:53 AM 50.0 °F - 28.9 °F 44% 30.02 in 10.0 mi East 17.3 mph - N/A   Clear
10:53 AM 52.0 °F - 28.9 °F 41% 30.01 in 10.0 mi East 18.4 mph - N/A   Clear
11:53 AM 54.0 °F - 28.9 °F 38% 29.99 in 10.0 mi East 19.6 mph 24.2 mph N/A   Clear
12:53 PM 57.9 °F - 30.9 °F 36% 29.96 in 10.0 mi East 18.4 mph 23.0 mph N/A   Clear
1:53 PM 59.0 °F - 32.0 °F 36% 29.95 in 10.0 mi East 17.3 mph 24.2 mph N/A   Clear
2:53 PM 59.0 °F - 30.9 °F 35% 29.93 in 10.0 mi East 16.1 mph - N/A   Clear
3:53 PM 57.9 °F - 32.0 °F 37% 29.92 in 10.0 mi East 15.0 mph - N/A   Scattered Clouds
4:53 PM 57.0 °F - 34.0 °F 42% 29.92 in 10.0 mi East 11.5 mph 20.7 mph N/A   Overcast
5:53 PM 57.0 °F - 33.1 °F 40% 29.91 in 10.0 mi East 11.5 mph - N/A   Overcast
6:53 PM 55.9 °F - 33.1 °F 42% 29.91 in 10.0 mi East 9.2 mph - 0.00 in   Overcast
7:53 PM 55.0 °F - 34.0 °F 45% 29.92 in 10.0 mi ENE 5.8 mph - N/A   Overcast
8:53 PM 53.1 °F - 35.1 °F 50% 29.93 in 10.0 mi East 10.4 mph - N/A   Scattered Clouds
9:53 PM 52.0 °F - 36.0 °F 54% 29.94 in 10.0 mi East 4.6 mph - N/A   Clear
10:53 PM 51.1 °F - 35.1 °F 54% 29.96 in 10.0 mi East 10.4 mph - N/A   Clear
11:53 PM 48.0 °F - 36.0 °F 63% 29.96 in 10.0 mi ESE 8.1 mph - N/A   Clear